Regional Weather Roundup
Issued by NWS Kansas City/Pleasant Hill, MO

Home | Current Version | Previous Version | Graphics & Text | Print | Product List | Glossary Off
Versions: 1 2 3 4 5 6 7 8 9 10 11 12 13 14 15 16 17 18 19 20 21 22 23 24 25 26 27 28 29 30 31 32 33 34 35 36 37 38 39 40 41 42 43 44 45 46 47 48 49 50

000
ASUS43 KEAX 022010
RWREAX

WEATHER ROUNDUP FOR EASTERN KANSAS AND NORTHWEST MISSOURI
NATIONAL WEATHER SERVICE KANSAS CITY/PLEASANT HILL MO
300 PM CDT WED SEP 02 2015

KSZ040-057-103>105-MOZ028-029-037-043-022100-
...KANSAS CITY METROPOLITAN AREA...

CITY           SKY/WX    TMP DP  RH WIND       PRES   REMARKS
K.C. INTL      MOSUNNY   89  70  53 S17       29.97F HX  94
K.C. DOWNTOWN  MOSUNNY   90  71  53 S15G22    29.96F HX  96
LEES SUMMIT    MOSUNNY   88  67  49 S14G23    29.99F HX  91
OLATHE - IXD   MOSUNNY   88  70  55 S14G25    29.99F HX  93
OLATHE - OJC   MOSUNNY   85  70  60 S14       29.98F
LAWRENCE       SUNNY     90  70  51 S14G25    29.95F HX  95

$$

MOZ001>008-011>017-020>025-030>033-038>040-044>046-053-054-022100-
...NORTHERN AND CENTRAL MISSOURI...

CITY           SKY/WX    TMP DP  RH WIND       PRES   REMARKS
ST. JOSEPH     SUNNY     85  72  65 S16G22    29.94F HX  91
MOSBY          CLEAR     86  68  54 S10G16    29.97F
WARRENSBURG    MOSUNNY   88  66  48 S12       29.99F HX  90
WHITEMAN AFB   MOSUNNY   90  69  49 SW13      29.98F HX  94
CLINTON        MOSUNNY   90  70  51 S12G17    30.01F HX  95
SEDALIA        MOSUNNY   92  67  43 S16       30.01F HX  95
WARSAW         NOT AVBL
CHILLICOTHE      N/A     84  71  65 S14       29.97F
KIRKSVILLE     MOSUNNY   85  67  54 S13G18    29.99F

$$

MOZ041-047>049-056>058-063>065-088>090-097-022100-
...EASTERN AND SOUTHERN MISSOURI...

CITY           SKY/WX    TMP DP  RH WIND       PRES   REMARKS
ST. LOUIS INTL PTSUNNY   93  63  36 S10G18    30.02F HX  94
SPIRIT OF STL  MOSUNNY   91  68  46 SW8       30.00F HX  95
COLUMBIA       CLOUDY    86  71  60 S8        30.01F HX  91
JEFFERSON CITY CLOUDY    88  65  46 S8        30.00F HX  90
ROLLA          PTSUNNY   88  64  44 S8        30.04F
OSAGE BEACH    CLOUDY    90  66  45 S7        30.04F HX  92
SPRINGFIELD    MOSUNNY   88  66  48 S10       30.05F HX  90
BRANSON        MOSUNNY   90  64  43 CALM      30.08F HX  91
JOPLIN         MOSUNNY   86  70  58 S9        30.04F HX  90
WEST PLAINS    SUNNY     88  63  43 W7        30.09F

$$

IAZ060-094-KSZ022-034>040-054-083-096-NEZ052-066-093-022100-
...KANSAS...SOUTHEAST NEBRASKA AND IOWA...

CITY           SKY/WX    TMP DP  RH WIND       PRES   REMARKS
TOPEKA         SUNNY     90  69  50 S12       29.94F HX  94
MANHATTAN      SUNNY     94  64  37 S18G28    29.90F HX  95
EMPORIA        SUNNY     91  65  41 S20       29.95F HX  93
CHANUTE        SUNNY     87  70  56 S15G22    30.01F HX  92
WICHITA        MOSUNNY   94  63  35 S18G28    29.93F HX  95
OMAHA          MOSUNNY   88  69  53 S20       29.87F HX  92
LINCOLN        SUNNY     92  69  47 S15G23    29.86F HX  97
FALLS CITY     SUNNY     89  69  51 S18G28    29.90F HX  93
LAMONI         SUNNY     84  70  62 SW21G29   29.95F
DES MOINES     MOSUNNY   88  67  49 SW14G23   29.90F HX  91

$$




USA.gov is the U.S. government's official web portal to all federal, state and local government web resources and services.